Regional Weather Roundup
Issued by NWS Grand Forks, ND

Home | Current Version | Previous Version | Graphics & Text | Print | Product List | Glossary On
Versions: 1 2 3 4 5 6 7 8 9 10 11 12 13 14 15 16 17 18 19 20 21 22 23 24 25 26 27 28 29 30 31 32 33 34 35 36 37 38 39 40 41 42 43 44 45 46 47 48 49 50
000
ASUS43 KFGF 310610
RWRFGF
PRAIRIE TO PINES  WEATHER ROUNDUP
NATIONAL WEATHER SERVICE EASTERN NORTH DAKOTA/GRAND FORKS ND
100 AM CDT TUE MAY 31 2016

 **SATELLITE DATA USED TO AUGMENT SKY COVER AT AUTOMATED STATIONS**
 *****  WEATHER ACROSS EASTERN NORTH DAKOTA  *****

CITY           SKY/WX    TMP DP  RH WIND       PRES   REMARKS
GRAND FORKS    HVY RAIN  59  56  89 E20G29    29.76F FOG
6HR MIN TEMP:  59; 6HR MAX TEMP:  65; 6HR PCP:  0.70;

GRAND FRKS AFB LGT RAIN  59  57  94 E20G25    29.75F
GRAND FRKS NWS   N/A     57 N/A N/A NE14        N/A
DEVILS LAKE    RAIN      58  55  90 E12G20    29.74F
6HR MIN TEMP:  58; 6HR MAX TEMP:  60;

FARGO          LGT RAIN  62  58  86 NE5       29.74F
WAHPETON ARPT  CLOUDY    59  55  88 E5        29.78S
$$

 ***** WEATHER ACROSS CENTRAL AND WESTERN NORTH DAKOTA  *****

CITY           SKY/WX    TMP DP  RH WIND       PRES   REMARKS
BISMARCK       CLOUDY    56  54  93 W14       29.82S
6HR MIN TEMP:  56; 6HR MAX TEMP:  62; 6HR PCP:  0.60;

MINOT          RAIN      58  55  90 N9        29.81F FOG
6HR MIN TEMP:  57; 6HR MAX TEMP:  61; 6HR PCP:  0.33;

JAMESTOWN      CLOUDY    56  55  97 CALM      29.73F
6HR MIN TEMP:  57; 6HR MAX TEMP:  64; 6HR PCP:  0.58;

MINOT AFB      NOT AVBL
GARRISON         N/A     55  53  93 N6        29.82F
WILLISTON      CLOUDY    53  50  89 SW5       29.86F
6HR MIN TEMP:  52; 6HR MAX TEMP:  56; 6HR PCP:  0.24;

DICKINSON      CLEAR     46  43  89 W13       29.88S
6HR MIN TEMP:  46; 6HR MAX TEMP:  59; 6HR PCP:  0.21;

HETTINGER      CLEAR     47  44  90 W12       29.96R
6HR MIN TEMP:  46; 6HR MAX TEMP:  63; 6HR PCP: TRACE;

$$

 *****  OTHER AIRPORT OBSERVATIONS IN OUR AREA  *****

CITY           SKY/WX    TMP DP  RH WIND       PRES   REMARKS
WALHALLA       FAIR      61  57  88 E10G16    29.79F
GRAFTON AIRPOR DRIZZLE   59  59 100 E17G23    29.78F
VALLEY CITY AR FAIR      57  57 100 CALM      29.74R
CANDO          NOT AVBL
CAVALIER APRT  MOCLDY    63  55  77 E16G23    29.78F
GWINNER        FAIR      59  57  94 E6        29.72F
SHEYENNE NWR     N/A     58  57  97 SE9       29.95S
ROLLA          LGT RAIN  57  57 100 N8        29.81F
 ***** THE ABOVE OBSERVATIONS ARE NON NWS ARE NOT QUALITY
       CONTROLLED AND MAY MIS-REPORT RAIN FOR SNOW...
$$

  *****  WEATHER ACROSS NORTHERN MINNESOTA  *****

CITY           SKY/WX    TMP DP  RH WIND       PRES   REMARKS
FLAG ISLAND    CLOUDY    61  48  63 E12G22    29.93F
WARROAD        CLOUDY    61  54  77 E16G22    29.89F
ROSEAU         CLOUDY    63  54  72 E16G23    29.86F
HALLOCK        LGT RAIN  63  57  82 E16       29.81F
THF RVR FALLS  CLOUDY    59  55  88 N10       29.83F
6HR MIN TEMP:  59; 6HR MAX TEMP:  72; 6HR PCP:  0.51;

BAUDETTE       MOCLDY    59  47  64 E18       29.90F
6HR MIN TEMP:  59; 6HR MAX TEMP:  73;

WASKISH        CLOUDY    63  50  63 E15G22    29.87F
CROOKSTON      TSTM      57  57 100 E12       29.80F
STEPHEN NDAWN    N/A     61  57  88 E12         N/A
GREENBUSH NDAW   N/A     61  55  82 E9          N/A
$$
  *****  WEATHER ACROSS CENTRAL AND WEST MINNESOTA  *****

CITY           SKY/WX    TMP DP  RH WIND       PRES   REMARKS
FOSSTON        CLOUDY    64  52  63 SE16G23   29.76F
BEMIDJI        CLOUDY    62  55  77 E10       29.82F
PARK RAPIDS    CLOUDY    65  55  70 SE10      29.80F
6HR MIN TEMP:  65; 6HR MAX TEMP:  76; 6HR PCP:  0.03;

ELBOW LAKE     CLOUDY    64  55  73 NW10G22   29.81R
6HR MIN TEMP:  64; 6HR MAX TEMP:  76;

WADENA         CLOUDY    64  54  68 E13       29.78F
DETROIT LAKES  LGT RAIN  64  55  72 W12       29.81R
MOORHEAD       RAIN      61  59  94 N5        29.75F
FERGUS FALLS   TSTM      59  59 100 N8        29.78S
MORRIS MN      CLOUDY    70  57  64 W14       29.78R
STAPLES        CLOUDY    63  55  77 E6        29.81F
$$
  *****  WEATHER ELSEWHERE ACROSS MINNESOTA  *****

CITY           SKY/WX    TMP DP  RH WIND       PRES   REMARKS
DULUTH         PTCLDY    53  45  74 E26G36    29.98S
6HR MIN TEMP:  53; 6HR MAX TEMP:  71; 6HR PCP:  0.03;

INTRNTL FALLS  CLOUDY    57  48  72 E12       29.96F
6HR MIN TEMP:  57; 6HR MAX TEMP:  72;

ELY            CLOUDY    55  45  67 E10       30.03S
CLOQUET        PTCLDY    61  43  51 E16G30    29.95F
WHEATON        RAIN      63  61  94 W5        29.83R
BRAINERD       LGT RAIN  64  58  80 SW9       29.89R
6HR MIN TEMP:  64; 6HR MAX TEMP:  77; 6HR PCP:  0.01;

HIBBING        MOCLDY    59  44  57 SE18G32   29.95S
6HR MIN TEMP:  59; 6HR MAX TEMP:  76;

ALEXANDRIA     CLOUDY    68  55  63 SE16      29.78F
6HR MIN TEMP:  66; 6HR MAX TEMP:  75; 6HR PCP:  0.04;

SAINT CLOUD    CLOUDY    69  54  58 SE10      29.83F
6HR MIN TEMP:  69; 6HR MAX TEMP:  79;

MINNEAPOLIS    CLOUDY    71  57  61 SE15      29.88F
6HR MIN TEMP:  70; 6HR MAX TEMP:  81; 6HR PCP: TRACE;

$$

  *****  WEATHER ACROSS SOUTH DAKOTA  *****

CITY           SKY/WX    TMP DP  RH WIND       PRES   REMARKS
SIOUX FALLS    RAIN      61  58  90 W13       29.83F FOG
6HR MIN TEMP:  61; 6HR MAX TEMP:  81; 6HR PCP:  0.12;

BROOKINGS      NOT AVBL
WATERTOWN      CLOUDY    61  57  87 NE5       29.76F
6HR MIN TEMP:  61; 6HR MAX TEMP:  80; 6HR PCP:  0.66;

HURON          CLOUDY    61  57  87 NW14G20   29.80R
6HR MIN TEMP:  61; 6HR MAX TEMP:  80; 6HR PCP:  0.04;

SISSETON         N/A     59  58  96 E15       29.74F
ABERDEEN       CLOUDY    57  55  93 W5        29.78F
6HR MIN TEMP:  57; 6HR MAX TEMP:  80; 6HR PCP:  0.46;

MITCHELL       LGT RAIN  63  59  87 W10       29.82R
PIERRE         CLOUDY    56  52  86 W18G25    29.88R
6HR MIN TEMP:  56; 6HR MAX TEMP:  69; 6HR PCP:  0.01;

MOBRIDGE       CLOUDY    57  52  83 NW16      29.83S
RAPID CITY     CLOUDY    52  41  66 NW17      30.04S
6HR MIN TEMP:  51; 6HR MAX TEMP:  69; 6HR PCP: TRACE;

$$

  *****  SOME WEATHER IN NEARBY STATES *****

CITY           SKY/WX    TMP DP  RH WIND       PRES   REMARKS
GLASGOW MT     CLOUDY    49  44  83 W12       29.92F
6HR MIN TEMP:  48; 6HR MAX TEMP:  59;

GREAT FALLS MT CLOUDY    44  38  79 N3        30.22R
6HR MIN TEMP:  44; 6HR MAX TEMP:  60;

CHEYENNE WY    CLOUDY    47  43  86 N20G30    30.15R
6HR MIN TEMP:  47; 6HR MAX TEMP:  67; 6HR PCP: TRACE;

SCOTTSBLUFF NE CLOUDY    54  46  74 N6        30.10S
6HR MIN TEMP:  54; 6HR MAX TEMP:  72; 6HR PCP:  0.01;

OMAHA NE       CLOUDY    69  62  78 S14       29.88F
6HR MIN TEMP:  67; 6HR MAX TEMP:  74; 6HR PCP: TRACE;

DES MOINES IA  CLOUDY    69  57  65 SE6       29.93F
6HR MIN TEMP:  69; 6HR MAX TEMP:  82;

DAVENPORT IA   CLEAR     69  62  78 S6        29.97S
6HR MIN TEMP:  67; 6HR MAX TEMP:  83;

CHICAGO IL     CLOUDY    68  55  63 E5        29.99S
6HR MIN TEMP:  68; 6HR MAX TEMP:  81;

EAU CLAIRE WI  CLOUDY    68  55  63 S9        29.94S
6HR MIN TEMP:  64; 6HR MAX TEMP:  79; 6HR PCP:  0.01;

LA CROSSE WI   LGT RAIN  68  60  75 S13       29.99R
6HR MIN TEMP:  67; 6HR MAX TEMP:  81; 6HR PCP:  0.05;

$$

  *****  SOME NATIONAL WEATHER *****

CITY           SKY/WX    TMP DP  RH WIND       PRES   REMARKS
LA GUARDIA NY  CLOUDY    74  72  93 SW7       29.92F
6HR MIN TEMP:  74; 6HR MAX TEMP:  76;

RALEIGH NC     MOCLDY    71  70  96 CALM      29.95S FOG
6HR MIN TEMP:  70; 6HR MAX TEMP:  74; 6HR PCP:  0.04;

ATLANTA GA     PTCLDY    76  59  55 NW8       29.94F
6HR MIN TEMP:  75; 6HR MAX TEMP:  87;

NEW ORLEANS LA PTCLDY    75  70  84 SW5       29.95F
6HR MIN TEMP:  75; 6HR MAX TEMP:  82;

OKLAHOMA CITY  CLOUDY    68  67  96 S6        29.92S
6HR MIN TEMP:  68; 6HR MAX TEMP:  80;

ALBUQUERQUE NM CLOUDY    68  32  26 E6        29.99F
6HR MIN TEMP:  67; 6HR MAX TEMP:  80;

SALT LAKE CITY PTCLDY    66  41  40 NW13      30.05S
6HR MIN TEMP:  63; 6HR MAX TEMP:  79;

LOS ANGELES CA CLOUDY   C1F1C2F2C3F3C4F4C5F5C6F6C7F7C8F8C9F9CaFaCbFbCcFcCd!



USA.gov is the U.S. government's official web portal to all federal, state and local government web resources and services.